Location: Fort Hays State University
(38.8712°N, 99.3432°W)
Time: 22:09:31
(UTC-05:00)

Cosmos 2279 Rocket - Visible Passes

Search period start: 29 August 2016 00:00
Search period end: 08 September 2016 00:00
Orbit: 963 x 980 km, 83.0° (Epoch: 29 August)

Date Brightness Start Highest point End Pass type
(mag) Time Alt. Az. Time Alt. Az. Time Alt. Az.
29 Aug 5.7 01:46:37 27° N 01:46:37 27° N 01:49:15 10° N visible
30 Aug 6.2 00:26:17 15° NE 00:26:17 15° NE 00:27:27 10° NNE visible
30 Aug 5.9 02:10:52 23° NNW 02:10:52 23° NNW 02:13:20 10° N visible
31 Aug 6.0 00:50:31 20° NNE 00:50:31 20° NNE 00:52:26 10° NNE visible
31 Aug 6.1 02:35:06 17° NW 02:35:06 17° NW 02:37:00 10° NNW visible
01 Sep 5.9 01:14:45 24° N 01:14:45 24° N 01:16:59 10° N visible
01 Sep 6.4 02:59:20 11° NW 02:59:20 11° NW 02:59:43 10° NW visible
01 Sep 6.4 23:54:24 11° NE 23:54:24 11° NE 23:54:45 10° NE visible
02 Sep 6.0 01:38:58 23° N 01:38:58 23° N 01:41:12 10° N visible
03 Sep 6.1 00:18:36 17° NNE 00:18:36 17° NNE 00:19:59 10° NNE visible
03 Sep 6.2 02:03:12 18° NNW 02:03:12 18° NNW 02:05:03 10° NNW visible
04 Sep 6.0 00:42:49 21° NNE 00:42:49 21° NNE 00:44:41 10° NNE visible
04 Sep 6.4 02:27:24 12° NW 02:27:24 12° NW 02:28:15 10° NNW visible
05 Sep 6.0 01:07:01 22° N 01:07:01 22° N 01:09:02 10° N visible
05 Sep 6.2 23:46:38 14° NNE 23:46:38 14° NNE 23:47:28 10° NNE visible
06 Sep 6.2 01:31:13 19° NNW 01:31:13 19° NNW 01:33:01 10° N visible
07 Sep 6.1 00:10:49 18° NNE 00:10:49 18° NNE 00:12:19 10° NNE visible
07 Sep 6.4 01:55:24 14° NNW 01:55:24 14° NNW 01:56:32 10° NNW visible
